Orbital Elements at Epoch 2459200.5 (2020-Dec-17.0) TDB
Reference: JPL 34 (heliocentric ecliptic J2000)
Element | Value | Uncertainty (1-sigma) | Units |
e | .1994095423026093 | 3.6173e-08 | |
a | 3.143064704767848 | 1.4084e-08 | au |
q | 2.516307610562606 | 1.1173e-07 | au |
i | 8.035847538504774 | 4.0747e-06 | deg |
node | 15.52702657281756 | 2.2583e-05 | deg |
peri | 11.32767903709899 | 2.4455e-05 | deg |
M | 24.02705006591226 | 7.9135e-06 | deg |
tp | 2459064.660410019783 (2020-Aug-03.16041002) | 4.4878e-05 | TDB |
period | 2035.299891527549 5.57 | 1.368e-05 3.745e-08 | d yr |
n | .1768781109351949 | 1.1889e-09 | deg/d |
Q | 3.76982179897309 | 1.6892e-08 | au |
|
| | Orbit Determination Parameters
Additional Information
|